Content
SEND FEEDBACK

Daily
Averages
Monthly
Summary
United States of America

ARIZONA FALLS, ARIZONA


Home > North America > United States > Arizona
Elevation: 1250 feet     Latitude: 33 30N     Longitude: 111 59W

WEATHER
 
SELECT A DAY
Number of Records: 173,690;   Date Range: 1/1/95 - 10/18/14
 
SHARE

PRINT THIS DATA

[ ← Previous Day ]
WEATHER ALMANAC - JANUARY 23, 2013
[ Next Day → ]
[ °C ]   °F
Weather ElementAverageHighLow
Temperature66.5 °F80.1 °F (3:51 pm)54 °F (1:51 am)
Dewpoint23.7 °F28 °F (1:51 am)19.9 °F (9:51 am)
Humidity21 %37 % (1:51 am)12 % (3:51 pm)
Barometer30.09 in30.16 in (9:51 am)30.03 in (3:51 pm)
Wind Speed4.6 mph9.2 mph (10:51 am)
Weather ElementAverage
Visibility10 mi
Wind DirectionENE (75.2 °)

Weather ElementTotal
Precipitation---
Cooling Degree Days2.1 (Base 65)
Growing Degree Days17.1 (Base 50)
Averaged from 23 records on January 23, 2013
WEATHER CONDITIONS BREAKOUT
WIND DIRECTION BREAKOUT
WEATHER BY HOUR - JANUARY 23, 2013
[ °C ]   °F
Local TimeTemperatureDewpointHumidityBarometerVisibilityWind DirectionWind SpeedGust SpeedPrecipitationEventsConditions
1:51 AM54.0 °F28.0 °F37 %30.10 in10.0 miSouth (170°)3.5 mphPartly Cloudy
2:51 AM55.9 °F25.0 °F30 %30.10 in10.0 miESE (110°)4.6 mphPartly Cloudy
3:51 AM60.1 °F21.9 °F23 %30.09 in10.0 miEast (90°)4.6 mphPartly Cloudy
4:51 AM55.9 °F21.9 °F27 %30.10 in10.0 miEast (90°)8.1 mphClear
5:51 AM55.9 °F21.0 °F26 %30.10 in10.0 miCalmClear
6:51 AM55.9 °F21.9 °F27 %30.12 in10.0 miEast (90°)4.6 mphMostly Cloudy
7:51 AM55.0 °F21.9 °F28 %30.13 in10.0 miESE (120°)6.9 mphMostly Cloudy
8:51 AM57.9 °F23.0 °F26 %30.14 in10.0 miCalmMostly Cloudy
9:51 AM64.9 °F19.9 °F18 %30.16 in10.0 miEast (100°)6.9 mphMostly Cloudy
10:51 AM68.0 °F19.9 °F16 %30.16 in10.0 miEast (90°)9.2 mphMostly Cloudy
11:51 AM72.0 °F21.0 °F15 %30.14 in10.0 miEast (80°)9.2 mphMostly Cloudy
12:51 PM73.0 °F21.9 °F15 %30.11 in10.0 miEast (100°)3.5 mphMostly Cloudy
1:51 PM75.0 °F21.9 °F14 %30.08 in10.0 miENE (60°)4.6 mphMostly Cloudy
2:51 PM79.0 °F23.0 °F13 %30.05 in10.0 miEast (80°)5.8 mphMostly Cloudy
3:51 PM80.1 °F23.0 °F12 %30.03 in10.0 miENE (70°)9.2 mphMostly Cloudy
4:51 PM80.1 °F24.1 °F13 %30.03 in10.0 miEast (100°)6.9 mphMostly Cloudy
5:51 PM75.9 °F25.0 °F15 %30.03 in10.0 miEast (80°)4.6 mphScattered Clouds
6:51 PM72.0 °F26.1 °F18 %30.04 in10.0 miEast (100°)3.5 mphScattered Clouds
7:51 PM70.0 °F27.0 °F20 %30.05 in10.0 miCalmMostly Cloudy
8:51 PM71.1 °F26.1 °F19 %30.06 in10.0 miCalmMostly Cloudy
9:51 PM66.9 °F27.0 °F22 %30.06 in10.0 miESE (110°)4.6 mphMostly Cloudy
10:51 PM66.9 °F27.0 °F22 %30.08 in10.0 miEast (90°)4.6 mphScattered Clouds
11:51 PM64.0 °F28.0 °F26 %30.09 in10.0 miCalmScattered Clouds
Hourly data recorded from KPHX, located miles away from Arizona Falls, Arizona







STORIES FROM OUR PARTNERS